Weather in Granada

Spain     37°09′58″N   3°36′12″W
temp.,
°C
wind,
m/s
gust,
m/s
humid.,
%
clouds,
%
prec.,
mm/h
press.,
hPa
HPBL,
m
16 april, fri
fri1623:00+7ne2290100 1.3 1016225
02:00+7nne129092 1.9 1015210
05:00+6ne119271 0.1 1015116
08:00+7nne118976 0.1 101584
11:00+8nnw117867 0.0 1016450
14:00+12nnw225419 0.2 10151417
17:00+12n234559 0.3 10141617
20:00+11wnw355885 1.0 1014512
17 april, sat
sat1723:00+8n227883 1.6 101726
02:00+7w11834 1.8 101716
05:00+6sw22863 0.1 101739
08:00+5sw119318 0.1 101834
11:00+9wnw23739 0.1 1018774
14:00+13wnw44423 0.3 10161707
17:00+14nw56290 0.0 10152118
20:00+11n34360 0.0 1017752
18 april, sun
sun1823:00+8ene33380 0.0 102039
02:00+7ese21400 0.0 102010
05:00+6ene11430 0.0 101910
08:00+5ene11460 0.0 102010
11:00+11n22315 0.0 1020755
14:00+15nw3224100 0.0 10191546
17:00+16wnw3223100 0.0 10181851
20:00+14wnw223796 0.0 1019154
19 april, mon
mon1923:00+10sse114496 0.0 102117
02:00+8ssw114715 0.0 102012
05:00+7sse114979 0.0 101910
08:00+7s115360 0.0 101910
11:00+12w3241100 0.0 1018520
14:00+14w6541100 0.0 10171294
17:00+14wsw564185 0.1 10151765
20:00+10wsw136451 0.2 1016629
20 april, tue
tue2023:00+10ssw246489 0.1 1017418
02:00+8sw227457 0.1 101792
05:00+7ssw12823 0.1 101650
08:00+6sw12888 0.1 101683
11:00+10w337142 0.0 1015808
14:00+13wnw345330 0.0 10141407
17:00+14wnw554795 0.1 10131696
20:00+12wnw2260100 0.1 1014662